Regional Weather Roundup
Issued by NWS

Home | Current Version | Previous Version | Graphics & Text | Print | Product List | Glossary On
Versions: 1 2 3 4 5 6 7 8 9 10 11 12 13 14 15 16 17 18 19 20 21 22 23 24 25 26 27 28 29 30 31 32 33 34 35 36 37 38 39 40 41 42 43 44 45 46 47 48 49 50
000
ASUS43 KFSD 292310
RWRSD

WEATHER ROUNDUP FOR SOUTH DAKOTA
NATIONAL WEATHER SERVICE SIOUX FALLS SD
600 PM CDT FRI MAY 29 2015

NOTE: "FAIR" INDICATES FEW OR NO CLOUDS BELOW 12,000 FEET WITH NO
SIGNIFICANT WEATHER AND/OR OBSTRUCTIONS TO VISIBILITY.


SDZ001>005-009-010-012>017-300000-
NORTHWEST AND NORTH CENTRAL SOUTH DAKOTA

CITY           SKY/WX    TMP DP  RH WIND       PRES   REMARKS
BUFFALO          N/A     58  38  47 NE8       30.21S
FAITH            N/A     54  37  52 N13G21    30.26S
MOBRIDGE       CLOUDY    55  37  50 N15       30.22R
$$

SDZ012>016-024>037-041>051-057-063-072>074-300000-
SOUTHWEST AND SOUTH CENTRAL SOUTH DAKOTA

CITY           SKY/WX    TMP DP  RH WIND       PRES   REMARKS
RAPID CTY ARPT PTSUNNY   56  41  57 N14       30.27R
PIERRE         PTSUNNY   55  41  59 N18       30.21R
CUSTER         CLOUDY    46  43  89 VRB3      30.28R
ELLSWORTH AFB  CLOUDY    56  40  56 NE14      30.26S
PHILIP         CLOUDY    56  40  55 N13G22    30.25S
PINE RIDGE     CLOUDY    48  43  82 N6        30.28R
SPEARFISH      FAIR      54  36  50 N8        30.30S
WINNER         CLOUDY    52  44  74 N17       30.20R
$$

SDZ004>011-016>023-039-040-300000-
NORTHEAST SOUTH DAKOTA

CITY           SKY/WX    TMP DP  RH WIND       PRES   REMARKS
ABERDEEN       CLOUDY    55  41  59 N18       30.16S
WATERTOWN      PTSUNNY   50  42  74 N24G31    30.09R
BROOKINGS      CLOUDY    50  45  81 N23       30.07R
SISSETON         N/A     50  43  77 N24G30    30.12S
$$

SDZ017-020-022-023-036>040-048>070-300000-
SOUTHEAST SOUTH DAKOTA

CITY           SKY/WX    TMP DP  RH WIND       PRES   REMARKS
SIOUX FALLS    CLOUDY    51  48  89 N22G28    30.03R
HURON          CLOUDY    52  44  74 N23       30.14R
CHAMBERLAIN    CLOUDY    52  44  76 N15G29    30.17S
MITCHELL       CLOUDY    52  47  83 N24G33    30.12R
YANKTON        CLOUDY    54  48  82 N23G29    30.03R
$$

ABBREVIATIONS USED IN REMARKS
   TC - TEMPERATURE IN CELSIUS
  WCI - WIND CHILL INDEX
   HX - HEAT INDEX
  VSB - VISIBILITY



USA.gov is the U.S. government's official web portal to all federal, state and local government web resources and services.